Miscellaneous Local Product
Issued by NWS Hastings, NE

Home | Current Version | Previous Version | Text Only | Print | Product List | Glossary Off
Versions: 1 2 3 4 5 6 7 8 9 10 11 12 13 14 15 16 17 18 19 20 21 22 23 24 25 26 27 28 29 30 31 32 33 34 35 36 37 38 39 40 41 42 43 44 45 46 47 48 49 50

000
AXUS43 KGID 231302
MISGRI

GID CWA HOURLY WEATHER ROUNDUP
NATIONAL WEATHER SERVICE HASTINGS NE
800 AM CDT WED APR 23 2014

NOTE: "FAIR" INDICATES FEW OR NO CLOUDS BELOW 12,000 FEET WITH NO
SIGNIFICANT WEATHER AND/OR OBSTRUCTIONS TO VISIBILITY.

...SOUTH CENTRAL NEBRASKA...

CITY           SKY/WX    TMP DP  RH WIND       PRES   REMARKS
GRAND ISLAND   CLOUDY    53  39  59 S18G38    29.74S
HASTINGS       CLOUDY    55  38  52 SE20G35   29.72F
KEARNEY        CLOUDY    54  37  54 S29G37    29.69F
ORD            CLOUDY    54  38  54 SE18G29   29.67F
YORK           LGT RAIN  50  41  71 SE23G31   29.79F
AURORA         CLOUDY    52  41  66 SE22G30   29.76F
LEXINGTON      CLOUDY    55  38  54 SE21G31   29.64F
HOLDREGE       CLOUDY    55  37  50 S24G30    29.68F
HEBRON         CLOUDY    53  43  69 SE21G26   29.82F

...NEBRASKA PANHANDLE...

CITY           SKY/WX    TMP DP  RH WIND       PRES   REMARKS
CHADRON        CLOUDY    57  45  64 W12       29.52R
ALLIANCE       CLOUDY    51  45  79 SW3       29.53R
SCOTTSBLUFF    CLOUDY    51  44  77 W7        29.57R
SIDNEY         CLOUDY    49  42  77 SW9       29.54R

...WESTERN AND NORTH CENTRAL NEBRASKA...

CITY           SKY/WX    TMP DP  RH WIND       PRES   REMARKS
VALENTINE      CLOUDY    55  34  45 SE16      29.53F
AINSWORTH      CLOUDY    55  37  50 S24G30    29.54F
ONEILL         PTSUNNY   54  35  48 SE23G33   29.67F
BROKEN BOW     PTSUNNY   53  36  52 SE20G30   29.64F
IMPERIAL       CLOUDY    58  43  57 S9        29.53F
NORTH PLATTE   CLOUDY    56  41  57 SE15G23   29.58S
MCCOOK         CLOUDY    56  46  69 SE10      29.60F

...EASTERN NEBRASKA...

CITY           SKY/WX    TMP DP  RH WIND       PRES   REMARKS
NORFOLK        CLOUDY    52  38  58 SE23G36   29.77F
SO SIOUX CITY  LGT RAIN  49  39  68 SE20      29.89R
TEKAMAH        CLOUDY    53  36  52 SE17      29.92S
COLUMBUS       CLOUDY    52  37  58 SE20G29   29.81F
ALBION         CLOUDY    52  38  60 S21       29.75S
OMAHA EPPLEY   LGT RAIN  52  39  61 SE18      29.94F
OFFUTT AFB     LGT RAIN  51  39  63 SE15      29.95S
MILLARD        DRIZZLE   51  38  60 SE17      29.93S
LINCOLN        LGT RAIN  53  40  61 SE20G26   29.89F
NEBRASKA CITY  DRIZZLE   52  38  59 SE10      29.96R
BEATRICE       LGT RAIN  51  42  70 SE17      29.87F
FALLS CITY     LGT RAIN  54  38  54 SE9       29.97R

...NORTHERN KANSAS...

CITY           SKY/WX    TMP DP  RH WIND       PRES   REMARKS
GOODLAND       CLOUDY    63  42  46 S23G33    29.61S
HILL CITY      PTSUNNY   56  43  61 S16G24    29.67F
PHILLIPSBURG   SUNNY     57  37  47 SE18      29.71F
SMITH CENTER   SUNNY     54  37  54 SE22G28   29.76S
BELOIT         MOSUNNY   57  37  47 SE18G26   29.79F
HAYS           PTSUNNY  N/A N/A N/A S22       29.73F
RUSSELL        MOSUNNY   59  39  47 SE26G33   29.73F
CONCORDIA      CLOUDY    54  41  61 SE22      29.83F
SALINA         PTSUNNY   59  37  44 SE15      29.85R
TOPEKA         CLOUDY    57  37  47 SE14      29.97F



USA.gov is the U.S. government's official web portal to all federal, state and local government web resources and services.